Regional Weather Roundup
Issued by NWS Lake Charles, LA

Home | Current Version | Previous Version | Text Only | Print | Product List | Glossary On
Versions: 1 2 3 4 5 6 7 8 9 10 11 12 13 14 15 16 17 18 19 20 21 22 23 24 25 26 27 28 29 30 31 32 33 34 35 36 37 38 39 40 41 42 43 44 45 46 47 48 49 50
706
ASUS44 KLCH 231310
RWRLCH
REGIONAL WEATHER ROUNDUP
NATIONAL WEATHER SERVICE LAKE CHARLES LA
800 AM CDT SUN JUL 23 2017

Note: "fair" indicates few or no clouds below 12,000 feet with no
significant weather and/or obstructions to visibility.


ACROSS SOUTHEAST TEXAS

CITY           SKY/WX    TMP DP  RH WIND       PRES   REMARKS
BEAUMONT       MOSUNNY   77  76  96 CALM      29.94R
BEAUMONT CITY  FAIR      82  76  84 MISG      29.94S
ORANGE         MOSUNNY   78  78 100 CALM      29.96R
JASPER         CLOUDY    78  77  98 CALM      29.98R
$$

ACROSS CENTRAL LOUISIANA

CITY           SKY/WX    TMP DP  RH WIND       PRES   REMARKS
LEESVILLE      CLOUDY    77  75  94 CALM      29.96R
FULLERTON      PTSUNNY   77  76  96 CALM      29.94R
ALEXANDRIA INT CLOUDY    77  75  93 S3        29.94R
ESLER FIELD    SUNNY     77  75  93 CALM      29.96R
DERIDDER       FAIR      77  75  95 CALM      29.98R
OAKDALE        CLOUDY    75  74  96 CALM      29.96S
OPELOUSAS      FAIR      74  73  94 S3        29.96F
$$

ACROSS SOUTHWEST AND SOUTH CENTRAL LOUISIANA

CITY           SKY/WX    TMP DP  RH WIND       PRES   REMARKS
SULPHUR        CLOUDY    80  79  97 CALM      29.96R
LAKE CHARLES   CLOUDY    80  77  90 S5        29.94R
CHENNAULT INT  MOSUNNY   79  77  94 E5        29.96R
CAMERON PHI    MOSUNNY   82  77  83 SW6       29.94S
DEQUINCY       FAIR      78  76  94 CALM      29.96R
JENNINGS       TSTM      73  71  93 S10G18    29.98R
LAFAYETTE      LGT RAIN  76  74  93 CALM      29.98R
NEW IBERIA     CLOUDY    73  69  87 S9        29.99R
ABBEVILLE      LGT RAIN  72  72 100 SW6       30.00R
PATTERSON      RAIN      75  73  93 NW9       30.02R
SALT POINT       N/A     75  73  93 W15G29    30.01R
$$

SELECTED SITES ACROSS THE REGION

CITY           SKY/WX    TMP DP  RH WIND       PRES   REMARKS
HOUSTON BUSH   MOSUNNY   81  76  84 S3        29.94R
HOUSTON HOBBY  PTSUNNY   82  76  81 SW3       29.94R
GALVESTON      MOSUNNY   85  78  80 SW13      29.95R
COLLEGE STAT   SUNNY     78  77  96 S3        29.94R
CONROE         CLOUDY    79  76  90 S5        29.95R
HUNTSVILLE     CLOUDY    79  75  87 SW8       29.95R
LUFKIN         CLOUDY    77  75  93 SE3       29.95R
SHREVEPORT     CLOUDY    80  77  90 VRB7      29.93R
MONROE         CLOUDY    75  73  93 CALM      29.96R
NATCHEZ MS     NOT AVBL
BATON ROUGE    PTSUNNY   79  75  87 SW8       29.97F
N.O. INTL ARPT PTSUNNY   80  77  90 S3        29.99S
SLIDELL        LGT RAIN  76  72  87 E6        29.99S
$$

MARINE REPORTS

STATION/POSITION TIME  SKY/WX   TEMP    WIND        PRES    VSBY
                                AIR SEA DIR/SP/G
                 (UTC)          (F)     (DEG/KT/KT) (MB)    (MI)
BUOY 30 S HIGH I 1150            85 87  230/ 17/ 19 1012.9
WVE H/P(F/S)=  3/ 5

SEA RIM ST PARK  1200            84     230/  9/ 11 1014.1R
PORT ARTHUR      1248            83 88  220/  7/  8 1014.1R
SABINE PASS N    1242            84 88  200/  6/ 10 1015.2R
TEXAS POINT      NOT AVBL
CALCASIEU PASS   1248            84 86  230/ 10/ 13 1013.4R
LK CHARLES BEACH 1248            81 84              1014.6R
MARSH ISLAND     NOT AVBL
FRESH WATER LOCK 1248            76 86  350/ 11/ 12 1015.1R
AMERADA PASS     1248            76 83  190/  3/  7 1015.1R
$$




USA.gov is the U.S. government's official web portal to all federal, state and local government web resources and services.